GEFSSGP_850_meantemp_042.txt.gz
Temperature
18 18 19 19 15 13 15 16 17 18 19 20 21 21 20 20 21 21 22 21 20 20 18 16 15 15 15 15 15 14 14 14 14 13 12 12 12 11 12 11 11 11 11 11 12 12 12 12 12
17 18 19 18 14 14 15 15 17 18 20 20 21 21 20 20 21 21 21 21 20 19 18 17 16 15 15 15 15 15 15 14 13 12 11 11 11 11 11 11 11 11 11 12 12 12 12 12 12
17 17 18 13 13 14 16 17 17 18 20 20 20 20 20 20 21 21 21 21 20 19 19 18 16 16 15 15 15 15 15 14 13 12 11 11 11 11 11 12 12 13 13 13 13 13 12 12 12
16 17 16 12 14 14 15 17 17 17 20 20 20 20 20 20 21 21 21 21 20 19 19 18 17 16 15 15 15 15 15 15 14 12 12 11 11 11 12 13 13 13 14 14 13 13 13 13 13
16 16 13 12 13 14 14 16 17 17 18 20 20 20 20 21 21 21 21 20 20 19 19 18 17 16 15 15 15 15 15 15 14 13 12 11 11 12 12 13 13 14 14 14 14 14 14 14 13
15 12 11 12 13 14 14 17 18 17 18 19 20 19 21 21 21 20 20 20 19 19 18 18 17 16 15 15 15 15 15 15 14 13 12 12 12 12 13 13 13 13 13 13 13 14 13 13 13
14 10 11 12 13 13 15 17 18 18 18 20 20 19 21 21 21 20 20 19 18 18 18 18 17 16 15 15 15 15 15 15 15 14 13 13 12 13 13 13 13 13 13 13 13 13 13 13 13
14 10 11 11 12 13 16 18 19 19 19 20 20 19 20 21 21 20 19 18 18 18 18 17 17 16 15 15 15 15 15 15 15 14 14 13 13 13 13 13 13 13 13 13 13 13 13 13 13
12 10 10 11 12 14 16 17 19 19 19 20 20 20 21 21 21 20 19 18 18 18 17 17 17 17 16 15 15 14 14 15 15 14 14 14 13 13 13 13 13 13 13 13 13 13 13 13 12
11 10 11 12 13 14 15 16 17 18 18 19 20 20 21 21 21 20 20 19 19 19 18 18 17 17 16 15 15 15 14 14 14 14 14 14 13 13 13 13 13 13 13 12 12 12 12 12 12
10 10 12 13 14 14 14 15 16 17 16 18 19 20 20 20 20 20 20 20 20 19 19 18 18 17 17 16 15 15 14 14 14 14 14 13 13 13 13 13 12 12 12 12 12 12 12 12 12
10 10 11 13 14 14 13 14 15 15 16 18 18 18 19 19 20 20 20 20 20 19 19 19 18 18 17 16 16 15 15 14 14 14 13 13 13 13 12 12 12 12 12 12 12 12 12 12 11
9 10 11 12 12 12 13 12 13 14 15 16 17 18 18 19 20 20 20 20 20 20 19 19 18 18 17 16 16 15 15 14 14 13 13 13 13 12 12 12 12 12 12 11 11 11 11 11 11
9 9 10 10 11 12 12 12 12 13 15 16 16 17 18 18 19 19 20 20 20 20 20 19 19 18 17 17 16 15 14 14 13 13 13 13 12 12 12 12 12 12 11 11 11 11 11 11 11
9 9 9 10 11 11 12 11 12 14 15 15 16 17 17 18 19 19 20 20 20 20 20 20 19 19 18 17 16 15 14 14 13 13 13 13 12 12 12 12 12 12 11 11 11 11 11 11 11
9 8 8 9 10 11 11 11 12 14 15 15 15 16 17 18 19 19 19 20 20 20 20 20 19 19 18 17 16 15 14 14 13 13 13 13 13 12 12 12 12 12 11 11 11 11 11 11 11
8 7 7 8 10 10 10 10 12 14 14 14 15 16 16 17 18 19 19 19 20 20 20 20 19 19 18 17 16 15 14 14 14 13 13 13 13 12 12 12 12 11 11 11 11 11 10 10 10
7 7 7 8 9 9 8 9 10 12 13 12 13 14 15 16 18 19 19 19 19 19 19 19 19 18 18 16 15 15 14 14 14 13 13 13 12 12 12 12 11 11 11 10 10 10 9 9 9
7 7 7 8 8 8 8 9 9 10 11 11 12 13 14 16 17 18 18 19 19 19 19 19 19 18 17 16 15 15 14 14 13 13 13 12 12 11 11 11 11 11 10 10 9 9 8 8 8
6 6 6 7 8 8 7 8 9 9 10 11 12 13 14 15 16 17 17 18 18 18 18 18 18 17 17 16 15 15 14 13 13 13 12 12 11 11 11 11 11 10 10 9 8 8 7 7 6
6 6 6 6 7 7 7 8 9 9 10 11 12 13 14 14 15 16 17 17 17 17 18 18 17 17 16 15 14 14 13 13 12 12 12 11 11 11 11 10 10 10 9 8 7 7 6 5 5
6 6 7 6 6 6 6 7 8 9 9 10 11 12 13 14 15 16 16 17 17 17 17 17 16 16 15 14 14 14 13 13 12 12 11 11 10 10 10 10 9 9 8 7 6 6 5 5 4
6 7 7 6 6 6 6 6 8 9 9 10 10 12 13 14 15 16 17 17 17 16 16 16 15 15 14 13 13 13 13 13 12 11 11 11 10 10 10 9 9 8 7 6 5 5 4 4 3
7 7 6 6 6 6 7 6 7 8 9 10 10 12 14 15 15 16 16 16 16 15 15 15 14 14 13 13 12 13 13 12 12 11 11 10 10 9 9 8 8 7 6 5 5 4 4 3 3
6 6 5 5 6 6 7 7 8 9 10 11 11 13 14 15 15 15 15 15 15 15 14 14 13 13 12 12 12 12 12 12 11 11 10 10 9 9 8 7 7 6 5 4 4 3 3 3 2
5 6 5 4 4 5 7 7 9 10 11 12 13 13 14 14 14 14 15 15 15 14 14 13 13 12 12 12 12 11 11 11 10 10 9 9 8 8 7 6 6 5 4 4 3 3 2 2 1
6 6 6 6 5 5 6 7 8 10 9 10 11 12 12 13 12 13 14 14 14 14 13 13 12 12 11 11 11 11 10 10 10 9 9 8 8 7 6 6 5 4 4 3 3 2 2 1 1
6 6 6 6 6 6 7 8 9 10 10 10 10 10 11 11 10 11 12 13 13 13 12 12 11 11 11 10 10 10 10 9 9 9 8 8 7 6 5 5 4 3 3 2 2 2 1 1 0
6 6 6 6 6 6 7 9 11 10 11 10 10 10 10 10 9 9 9 11 11 11 11 11 11 11 10 10 10 9 9 9 8 8 7 7 6 5 5 4 3 3 2 2 1 1 1 0 -0
7 7 6 6 7 6 7 9 11 10 9 9 9 9 9 9 8 7 7 9 10 10 10 10 10 10 10 9 9 9 9 8 8 7 7 6 5 5 4 3 3 2 2 1 1 1 0 -0 -1

GEFSSGP_850_meantemp_048.txt.gz
Temperature
17 17 18 19 21 22 22 23 23 23 24 23 22 23 25 25 26 24 20 20 20 19 18 17 16 15 15 15 15 15 15 15 14 13 13 12 12 11 11 11 11 11 12 12 12 13 13 13 13
17 17 18 20 21 22 22 23 23 23 23 22 22 22 24 24 22 20 20 20 19 19 17 16 15 15 15 15 15 15 15 15 14 13 12 12 11 11 11 11 11 11 12 12 12 13 12 12 12
16 17 19 21 21 22 22 23 23 22 21 21 23 23 23 23 21 20 19 20 19 18 17 16 16 15 15 15 15 15 15 15 14 13 12 11 11 11 12 12 12 12 12 12 12 12 12 12 12
16 17 19 20 21 22 23 23 22 22 22 22 22 24 23 21 20 19 20 20 19 18 17 17 16 15 15 15 15 16 16 15 14 13 12 12 12 12 12 13 13 13 13 13 12 13 13 13 13
16 18 19 20 21 22 22 22 21 22 23 22 22 23 23 20 20 20 20 19 19 18 17 17 16 15 15 15 15 16 16 15 14 14 13 12 12 12 12 13 13 13 13 13 13 13 13 13 13
17 19 19 20 21 22 22 21 21 22 22 22 22 23 23 21 20 20 20 19 18 18 17 16 15 15 15 15 15 15 16 15 15 14 13 12 12 13 13 13 13 13 13 13 13 13 13 13 13
17 18 19 20 21 21 21 20 21 22 22 22 22 23 23 20 20 20 19 18 18 18 17 16 15 15 14 14 14 15 15 15 15 14 14 13 13 13 13 13 13 13 13 13 13 13 13 13 13
16 18 19 19 20 21 21 20 20 21 22 21 21 23 23 20 20 20 19 18 18 17 17 16 15 15 14 14 14 14 15 15 15 15 14 14 13 13 13 13 13 13 13 13 13 13 13 13 13
14 17 18 19 19 20 20 20 20 19 20 20 20 21 19 19 19 19 19 18 18 18 17 16 15 15 14 14 14 14 14 14 15 15 14 14 12 12 12 13 13 13 13 13 13 13 13 13 12
15 16 18 19 19 19 19 19 19 19 20 21 20 19 18 18 18 18 18 18 18 18 18 17 16 15 14 14 14 14 14 14 14 13 13 13 12 12 13 13 13 13 13 13 12 12 12 12 12
15 16 17 16 16 17 18 18 18 19 20 21 20 19 18 17 17 17 18 18 18 18 18 17 16 16 15 14 14 14 14 14 13 13 13 13 13 13 13 13 13 13 12 12 12 12 12 12 12
14 15 14 15 14 15 16 17 17 18 19 19 18 17 17 18 18 18 18 18 17 17 17 18 17 16 16 15 14 14 14 14 14 14 13 13 13 13 12 12 12 12 12 12 12 12 12 12 12
13 14 13 13 13 14 14 15 16 17 17 17 17 17 17 18 18 18 17 17 17 17 17 18 17 17 16 16 15 15 14 14 14 14 13 13 13 13 12 12 12 12 12 12 12 12 12 12 12
13 13 13 13 13 14 14 15 15 16 16 16 16 17 17 18 18 18 18 17 18 18 18 18 18 17 17 16 16 15 15 14 14 14 14 13 13 13 12 12 12 12 12 12 12 12 11 11 11
11 12 13 13 13 14 14 14 16 16 16 16 16 17 17 17 18 18 18 18 18 18 18 18 18 18 17 17 16 16 15 14 14 14 13 13 13 13 12 12 12 12 12 12 12 11 11 11 11
12 12 13 14 13 13 13 14 17 16 16 16 16 17 17 17 17 18 18 18 18 18 18 18 18 18 18 17 17 16 15 14 14 14 13 13 13 13 12 12 12 12 12 12 11 11 11 11 10
11 12 13 13 13 13 13 14 16 15 14 15 16 16 16 17 17 17 17 18 18 18 18 18 19 18 18 17 17 16 15 14 14 13 13 13 13 13 12 12 12 12 11 11 11 11 11 10 10
12 12 12 13 13 13 13 14 15 14 14 15 15 15 15 16 16 17 17 17 17 18 18 18 18 18 18 17 16 15 15 14 14 13 13 13 13 13 12 12 12 11 11 11 11 11 11 10 9
11 11 11 12 13 12 12 13 14 15 14 14 15 15 15 15 15 16 16 16 16 17 18 18 18 18 18 17 17 16 14 14 13 13 13 13 13 12 12 12 11 11 11 11 11 10 10 9 9
10 10 10 11 12 11 11 12 14 14 14 14 14 15 15 15 15 15 15 15 16 16 17 18 18 18 18 18 17 16 15 14 13 13 13 12 12 12 12 11 11 11 10 10 10 10 9 9 8
9 9 10 10 11 11 11 12 15 16 15 14 14 14 14 15 15 16 16 15 16 16 17 18 18 18 18 17 16 16 15 13 13 12 12 12 11 11 11 11 10 10 10 10 10 9 8 8 7
9 10 9 9 9 10 10 11 15 16 15 15 15 14 15 15 15 15 15 15 15 16 16 17 17 17 17 17 17 16 15 13 12 12 12 11 11 11 10 10 10 10 10 9 9 8 7 7 6
9 9 9 9 9 8 10 9 13 16 15 15 16 15 15 15 15 14 15 15 15 15 16 16 17 16 16 16 16 15 13 13 12 12 11 11 10 10 10 10 10 9 9 9 8 7 6 6 5
9 8 9 9 8 7 10 10 13 16 16 16 17 16 15 15 14 14 14 14 14 14 15 16 16 16 16 15 14 13 13 13 12 11 11 10 10 9 9 9 9 9 8 8 7 6 6 5 4
8 7 8 8 7 9 11 10 12 15 15 15 16 16 15 15 14 14 14 13 13 13 14 15 15 15 15 14 13 13 12 12 12 11 11 10 9 9 9 9 9 8 7 7 6 5 5 4 4
8 8 9 9 10 11 11 10 13 15 15 14 14 14 14 14 14 14 13 13 12 13 14 14 15 15 14 13 12 12 12 11 11 11 10 10 9 9 9 8 8 7 7 6 5 5 4 3 3
7 7 9 8 8 8 11 12 14 15 14 14 14 13 13 13 13 13 13 12 12 12 13 14 14 14 13 12 12 11 11 11 11 10 9 9 9 8 8 8 7 6 6 5 4 4 3 3 2
9 9 7 7 7 9 11 13 14 15 14 14 14 13 13 12 12 12 12 11 10 10 11 11 12 12 12 12 11 11 11 10 10 9 9 8 8 8 7 7 6 6 5 4 4 3 2 2 1
7 7 7 8 8 8 10 13 15 15 14 14 13 12 12 11 11 11 11 10 9 9 8 8 9 10 11 11 11 10 10 9 9 8 8 8 8 7 7 6 5 5 4 3 3 2 2 1 1
9 9 8 7 8 8 9 11 15 14 14 13 12 11 10 10 10 10 10 9 8 7 7 7 8 9 10 11 10 10 9 8 8 8 8 7 7 7 6 5 4 4 3 3 2 2 1 1 0

GEFSSGP_850_meantemp_054.txt.gz
Temperature
17 18 18 19 19 19 20 22 25 26 26 27 26 25 25 25 23 21 21 20 20 20 20 18 17 17 16 16 16 16 15 15 15 14 14 13 13 13 13 12 12 13 13 13 13 13 13 13 13
17 18 18 20 18 19 21 23 24 26 26 25 25 25 25 26 23 21 20 19 19 20 20 19 18 17 16 16 16 16 15 15 14 14 13 13 13 13 13 13 12 13 13 13 13 13 13 13 13
17 17 19 19 19 19 21 25 26 26 25 24 25 25 26 25 23 21 20 19 18 19 19 19 18 17 16 16 16 16 15 15 14 13 13 13 13 13 13 13 13 13 13 13 13 13 13 13 13
16 17 19 19 19 21 22 24 26 25 25 25 25 26 25 23 23 21 20 19 18 18 18 18 18 17 16 16 16 16 15 15 14 13 13 13 13 14 14 14 14 14 13 13 13 14 13 14 14
16 18 18 18 19 21 23 25 25 25 24 25 25 25 24 23 22 21 20 19 18 17 18 18 17 17 16 16 16 16 15 15 14 14 13 13 14 14 14 14 15 14 14 14 14 14 14 14 14
17 18 18 18 20 22 23 25 25 24 24 25 25 24 23 22 21 20 19 19 18 17 18 18 17 16 16 16 16 16 16 15 14 14 14 13 14 14 14 15 15 14 14 14 14 14 14 14 14
17 17 18 19 20 22 23 25 25 23 23 25 25 24 23 21 21 20 19 19 18 17 17 17 17 16 16 16 16 16 16 15 15 14 14 14 14 14 14 14 15 14 14 14 14 14 14 14 14
17 18 18 19 20 21 24 25 25 24 23 24 24 24 23 21 20 20 19 19 18 17 17 17 17 16 16 16 16 16 15 15 15 15 15 14 14 14 14 14 14 14 14 14 14 14 14 14 13
16 16 17 19 20 21 24 24 24 23 23 23 23 23 21 20 20 20 19 19 18 17 16 16 16 16 16 16 15 15 15 15 15 15 15 15 14 14 14 14 14 14 14 14 14 13 13 13 13
16 15 17 19 21 21 23 23 23 22 22 22 23 22 21 20 20 19 19 19 18 17 17 16 15 15 15 15 15 15 15 16 15 15 15 14 14 13 14 14 14 14 14 13 13 13 13 13 13
16 15 17 19 21 21 20 21 22 21 20 22 22 22 21 21 20 19 19 18 18 17 17 16 16 15 15 15 15 15 15 15 15 15 15 14 13 13 13 13 14 13 13 13 13 13 13 12 12
16 17 18 19 19 19 19 19 20 20 21 21 22 22 21 20 20 20 20 19 19 18 17 17 16 16 15 15 15 14 14 14 14 14 14 14 13 13 13 13 13 13 13 13 12 12 12 12 12
16 16 18 18 18 17 17 17 17 18 19 20 20 20 20 20 20 20 20 20 20 19 18 17 16 16 15 15 15 14 14 14 14 14 13 13 13 13 13 13 13 12 12 12 12 12 12 12 12
16 16 17 17 17 17 16 16 16 17 18 18 19 19 19 19 20 20 20 20 20 20 19 18 17 16 16 15 15 15 14 14 14 14 14 13 13 13 13 13 13 13 12 12 12 12 12 12 12
15 14 15 16 16 16 16 15 16 17 17 18 18 19 19 19 19 20 20 20 20 20 19 18 18 17 16 15 15 15 15 14 14 14 14 14 13 13 13 13 13 13 13 12 12 12 12 12 12
14 13 13 16 16 16 15 14 16 18 18 17 18 18 19 19 19 19 20 20 20 20 19 19 18 17 16 16 15 15 15 14 14 14 14 14 13 13 13 13 13 13 13 13 12 12 12 12 12
12 12 13 16 17 16 15 14 16 18 19 18 18 18 18 19 19 19 19 20 20 20 19 19 18 17 17 16 15 15 15 14 14 14 14 14 13 13 13 13 13 13 13 12 12 12 12 12 12
13 13 14 15 16 16 14 14 16 17 18 18 18 18 18 18 19 19 19 19 20 20 19 19 18 18 17 16 15 15 15 14 14 14 14 14 13 13 13 13 13 13 12 12 12 12 12 12 11
13 13 14 15 16 15 14 14 15 16 16 16 17 17 18 18 18 19 19 19 19 20 19 19 18 18 17 16 16 15 15 14 14 14 13 13 13 13 13 13 13 13 12 12 12 12 12 11 11
12 12 12 14 15 14 13 13 14 15 15 16 17 17 17 17 18 18 18 19 19 19 19 19 18 18 17 17 16 16 15 14 14 14 13 13 13 13 13 13 13 12 12 12 11 11 11 11 10
11 11 12 12 12 13 12 12 14 16 16 16 17 17 17 17 18 18 18 18 18 18 18 18 18 18 17 16 16 15 14 14 13 13 13 13 13 13 13 12 12 12 11 11 11 11 11 10 10
11 12 12 11 10 11 12 10 13 16 17 17 17 17 17 17 17 17 17 18 18 18 18 18 18 17 17 16 15 15 15 15 14 14 13 13 12 12 12 12 12 11 11 11 10 10 10 10 9
11 11 11 11 10 9 10 9 11 15 15 17 16 18 18 17 17 17 17 17 17 17 17 17 17 17 16 16 15 15 15 15 15 13 12 12 12 12 12 11 11 11 10 10 10 10 9 9 8
11 10 10 10 9 7 9 10 11 15 17 17 17 18 18 17 17 17 16 16 16 16 16 17 16 16 16 15 15 15 14 15 15 14 12 12 12 11 11 11 10 10 10 10 10 9 9 8 7
10 8 8 8 7 7 11 11 12 16 17 17 17 17 17 16 16 16 16 16 16 16 16 16 16 16 15 15 14 13 13 14 15 15 13 12 11 11 11 10 10 9 9 9 9 9 8 7 7
9 9 8 9 9 11 13 12 13 16 17 18 17 17 16 16 15 15 15 15 15 15 15 15 15 15 14 14 13 12 12 13 13 13 13 12 11 11 10 9 9 9 9 8 8 8 7 6 6
8 8 9 8 8 7 9 12 15 16 16 16 16 16 15 15 14 14 14 14 14 14 14 14 14 14 13 13 12 11 11 11 12 12 12 11 10 10 9 9 8 8 8 8 7 7 6 6 5
10 9 8 7 6 7 10 12 13 15 15 15 14 14 14 14 13 13 13 13 13 13 13 13 13 13 12 12 11 11 10 11 11 11 11 10 10 9 8 8 8 8 7 7 6 6 5 5 4
8 8 8 8 8 7 7 10 15 14 14 14 13 14 13 13 12 12 12 12 12 12 12 12 12 12 11 10 10 10 10 10 10 10 10 10 9 8 8 8 7 7 7 6 6 5 4 4 3
9 9 8 7 7 8 7 9 14 14 14 14 13 13 12 11 11 11 11 11 11 11 12 12 11 10 10 10 9 9 9 9 9 9 9 8 8 7 7 7 7 6 6 5 5 4 3 3 2

GEFSSGP_850_meantemp_060.txt.gz
Temperature
17 17 18 18 15 13 14 15 17 18 20 23 23 23 21 21 21 21 20 20 19 19 18 17 18 17 17 17 17 17 16 16 16 15 15 15 15 15 15 14 14 14 14 14 13 13 14 14 14
16 17 17 17 13 13 14 15 17 18 21 23 23 23 21 21 21 20 20 19 19 19 18 18 18 18 18 17 17 17 17 16 16 16 16 15 15 15 15 14 14 14 13 13 13 13 13 14 14
16 16 17 13 12 13 15 16 18 20 22 23 23 23 22 21 21 21 21 20 19 19 19 18 18 18 18 18 18 18 17 17 16 16 16 16 16 15 15 15 14 14 13 13 13 13 13 14 14
15 16 15 12 13 14 15 17 17 19 22 23 23 22 21 21 22 22 21 20 19 19 19 18 18 18 18 18 18 18 18 17 17 17 16 16 16 16 16 15 14 14 13 13 13 13 14 14 14
15 15 12 12 13 14 15 17 18 18 20 23 23 21 21 21 21 22 21 20 20 19 18 18 18 18 18 18 19 18 18 18 17 17 17 16 16 16 16 15 15 14 14 14 14 14 14 14 14
14 12 11 12 13 15 15 18 18 18 20 22 22 20 20 21 21 21 20 20 20 19 18 17 17 18 18 18 19 19 18 18 18 17 17 16 16 16 16 15 15 14 14 14 14 14 14 14 14
13 10 11 12 14 14 16 19 18 18 19 22 23 19 19 19 20 20 19 19 19 19 18 17 17 17 18 18 18 19 19 18 18 17 17 16 16 16 16 15 15 14 14 14 14 14 14 14 14
14 11 12 12 13 14 17 19 20 20 20 23 23 19 19 19 19 18 18 18 18 18 18 18 17 17 17 18 18 18 18 18 18 17 17 16 16 16 16 15 15 15 14 14 14 14 14 14 13
13 10 11 12 14 15 18 18 20 21 21 22 22 22 22 20 18 18 18 17 17 17 17 17 17 17 17 17 18 18 18 18 18 17 17 16 16 16 15 15 15 15 14 14 14 14 14 13 13
12 10 11 14 15 16 17 17 18 19 20 20 21 21 21 20 19 18 18 18 17 17 17 17 17 17 17 17 17 17 18 18 17 17 17 16 16 15 15 15 15 14 14 14 14 14 13 13 13
11 11 13 15 16 16 17 17 18 18 18 19 19 20 20 19 19 19 19 19 19 18 18 17 17 17 17 17 17 17 17 17 17 17 16 16 16 15 15 15 14 14 14 14 14 13 13 13 13
12 12 14 15 16 16 16 16 16 17 18 18 18 19 19 19 19 19 19 19 19 19 18 18 17 17 17 17 17 17 17 17 17 16 16 16 15 15 15 14 14 14 14 14 13 13 13 13 13
11 12 14 15 15 15 16 15 16 16 18 18 18 18 18 19 19 19 19 19 19 19 18 18 17 17 17 16 16 16 17 17 16 16 16 15 15 15 14 14 14 14 13 13 13 13 13 13 13
12 13 13 14 14 15 15 15 15 16 18 18 18 18 18 18 19 19 18 18 18 18 18 18 18 17 17 17 16 16 16 16 16 16 15 15 15 15 14 14 13 13 13 13 13 13 13 13 12
13 12 12 13 14 14 15 13 13 16 17 17 18 18 18 18 19 19 19 18 18 18 18 18 18 18 17 17 16 16 16 16 15 15 15 15 14 14 14 13 13 13 13 13 13 12 12 12 12
12 11 11 12 13 14 13 12 13 16 16 16 17 18 18 18 19 19 19 19 19 18 18 18 18 17 17 17 16 16 16 15 15 15 15 14 14 14 13 13 13 13 13 13 12 12 12 12 12
10 9 9 11 12 12 12 11 12 15 15 15 16 16 17 18 18 19 19 19 19 19 19 18 18 17 17 17 17 16 16 15 15 15 14 14 14 13 13 13 13 13 12 12 12 12 12 12 12
8 9 10 10 11 11 11 11 12 14 14 14 15 16 16 17 18 18 18 19 19 19 19 18 18 18 18 17 17 16 16 15 15 15 14 14 14 13 13 13 13 13 12 12 12 12 12 12 12
9 9 9 10 11 11 11 10 11 12 12 13 14 15 16 17 17 18 18 18 18 18 18 18 18 18 18 17 16 16 16 15 15 15 14 14 14 13 13 13 13 12 12 12 12 12 12 12 12
9 9 9 10 11 11 10 10 10 11 11 13 14 14 15 16 17 17 17 17 18 18 18 18 18 18 18 17 17 17 17 16 16 15 15 14 14 13 13 13 13 12 12 12 12 12 12 12 12
9 9 9 10 9 9 9 9 9 10 12 13 14 14 15 15 16 16 17 17 17 17 17 18 18 18 18 18 17 17 16 16 15 15 15 14 14 13 13 13 13 13 12 12 12 12 12 11 11
9 10 10 10 8 7 8 7 8 9 10 11 12 13 14 15 15 16 16 16 17 17 17 17 17 17 17 17 17 17 16 16 16 16 15 15 14 14 13 13 13 12 12 12 12 12 11 11 11
9 10 9 9 7 6 7 7 8 8 10 12 11 13 15 15 15 15 16 16 16 16 17 17 17 17 17 17 17 17 17 17 16 16 15 15 14 14 13 13 12 12 12 12 11 11 11 11 11
9 8 8 6 5 5 6 6 7 8 11 12 12 13 14 15 15 15 15 15 16 16 16 16 16 16 16 16 16 16 16 16 16 16 15 15 14 14 13 12 12 12 11 11 11 11 10 10 10
8 6 6 6 6 5 7 6 7 9 10 11 11 13 14 14 15 15 15 15 15 15 15 16 16 16 16 16 16 16 16 16 16 16 15 15 14 14 13 12 11 11 11 11 10 10 10 9 9
7 6 5 6 5 6 7 6 8 10 11 12 13 13 13 14 14 14 14 14 14 14 14 15 15 15 15 15 15 15 15 15 15 15 15 15 14 14 13 12 11 11 10 10 9 9 9 8 8
7 6 7 6 5 5 6 7 8 11 11 11 11 12 13 13 13 13 13 13 13 13 13 14 14 14 14 14 14 14 15 15 15 15 15 14 14 13 12 11 10 10 9 9 9 8 8 8 7
8 7 5 4 5 5 6 6 8 11 10 10 10 11 12 12 12 12 12 12 12 12 12 12 13 13 13 14 14 14 14 14 14 14 14 13 13 12 11 10 10 9 8 8 8 7 7 7 6
7 7 6 4 4 4 5 7 9 10 10 9 9 11 11 11 11 10 10 10 11 11 11 12 12 12 12 13 13 13 13 13 13 13 13 12 11 11 10 9 9 8 7 7 6 6 6 6 5
7 6 5 4 4 4 4 7 9 9 9 9 10 11 11 10 10 9 9 9 9 10 10 10 11 11 11 12 12 12 12 12 12 12 11 11 10 9 8 8 7 7 6 6 6 5 5 4 4

GEFSSGP_850_meantemp_066.txt.gz
Temperature
16 17 17 17 14 12 13 14 15 16 17 19 20 20 19 19 19 20 21 21 21 20 18 17 16 16 16 16 16 16 16 16 16 16 16 15 15 15 15 15 15 14 14 14 13 13 13 13 13
16 16 16 16 12 12 13 13 14 16 18 20 20 20 20 20 21 21 21 20 20 20 18 17 17 17 17 17 16 16 16 16 16 16 16 16 15 15 15 15 14 14 14 14 13 13 13 13 13
15 15 16 12 11 12 14 14 14 17 19 19 20 21 20 21 21 21 21 20 20 19 18 17 17 17 17 17 17 17 16 16 16 16 16 16 16 15 15 15 14 14 14 14 14 13 13 13 13
14 15 14 11 12 12 14 16 15 16 18 19 20 20 20 20 21 21 21 20 19 19 18 17 17 17 17 17 17 17 17 17 17 17 17 16 16 16 15 15 14 14 14 14 14 14 14 14 14
14 14 11 10 11 13 13 15 16 16 17 19 19 19 20 20 20 21 21 20 19 19 18 17 17 17 17 17 17 17 17 17 17 17 17 17 17 16 16 15 14 14 14 14 14 14 14 14 14
13 11 10 11 12 13 13 15 16 16 17 18 19 19 20 21 20 21 20 19 19 18 18 17 17 17 17 17 17 17 17 17 17 17 17 17 17 16 16 15 15 14 14 14 14 14 14 14 14
12 9 10 11 12 13 14 16 16 16 16 18 20 19 20 20 20 20 20 19 18 17 17 17 17 17 17 17 17 18 17 17 17 17 17 17 17 17 16 15 15 14 14 14 14 14 14 14 14
12 9 10 10 12 13 15 17 18 18 18 19 20 19 20 21 20 20 19 18 17 17 17 17 18 18 18 18 17 18 18 17 17 17 17 17 17 16 16 15 15 14 14 14 14 14 14 13 13
12 9 9 10 12 14 15 16 18 18 18 19 19 20 20 20 19 19 18 17 17 17 17 17 18 18 18 18 17 17 17 17 17 17 17 17 17 16 16 15 15 14 14 14 14 14 13 13 13
11 9 10 12 12 14 15 16 17 17 17 18 18 19 20 20 19 19 19 18 18 18 17 17 17 18 18 18 18 18 18 17 17 17 17 17 16 16 16 15 15 14 14 14 14 13 13 13 13
9 9 11 12 14 15 15 15 16 16 16 17 17 18 19 18 18 18 19 20 20 19 18 18 17 17 17 18 18 18 18 18 17 17 17 16 16 16 15 15 15 14 14 14 13 13 13 13 13
9 10 11 13 14 14 14 15 15 15 17 17 17 17 17 17 17 18 18 19 19 19 19 18 18 17 17 17 17 17 18 18 17 17 17 16 16 15 15 15 14 14 14 13 13 13 13 13 13
9 11 12 13 14 14 14 14 14 15 16 16 17 17 16 16 16 17 17 17 18 19 19 18 18 18 17 17 17 17 17 17 17 17 16 16 16 15 15 15 14 14 13 13 13 13 13 13 13
10 11 12 12 13 13 13 13 13 14 16 16 16 16 16 16 16 16 16 17 18 18 18 18 18 18 17 17 17 17 17 17 17 17 16 16 16 15 15 14 14 14 13 13 13 12 12 12 12
11 10 10 11 12 12 13 12 11 15 15 15 16 16 16 16 16 17 17 17 18 18 18 18 18 17 17 17 17 17 16 16 16 16 16 16 15 15 14 14 14 13 13 13 12 12 12 12 12
10 10 9 11 11 12 12 11 12 15 14 14 15 16 16 17 17 17 17 17 17 17 17 17 17 17 17 17 17 16 16 16 16 16 16 15 15 15 14 14 14 13 13 12 12 12 12 12 12
9 8 9 10 11 11 11 10 11 14 13 13 14 15 16 17 17 17 17 17 17 17 17 17 17 17 17 17 17 17 16 16 16 16 15 15 15 15 14 14 13 13 12 12 12 12 12 12 12
8 8 9 9 10 10 9 9 10 13 12 12 14 15 15 16 17 17 17 17 17 17 17 17 17 17 17 17 17 16 16 16 16 16 15 15 15 15 14 14 13 13 12 12 12 12 12 11 11
8 8 8 9 10 10 9 9 10 11 11 11 13 14 15 15 16 16 17 17 17 17 17 17 17 17 17 17 17 16 16 16 16 16 16 15 15 15 14 14 13 13 12 12 12 12 12 11 11
8 8 8 9 9 10 8 8 9 9 10 11 12 13 14 15 15 15 16 16 16 17 17 17 17 17 17 17 17 17 17 17 17 16 16 16 15 15 14 14 14 13 12 12 12 12 12 11 11
8 8 8 9 9 8 8 9 9 9 10 10 11 12 13 13 14 15 15 15 16 16 16 16 17 17 17 17 17 16 16 16 16 16 16 16 15 15 15 14 14 14 13 13 12 12 12 12 11
8 9 9 9 8 7 8 8 8 9 8 8 9 11 12 13 13 14 14 15 15 15 16 16 16 16 16 16 16 16 16 16 16 17 16 16 16 15 15 15 14 14 13 13 12 12 12 12 11
8 8 8 8 7 7 7 7 8 8 9 9 9 10 11 12 13 13 14 14 14 15 15 15 16 16 16 16 16 16 16 16 16 16 16 16 16 15 15 15 14 14 13 13 12 12 12 11 11
8 7 6 5 6 6 6 7 8 8 9 9 9 10 10 11 12 13 13 14 14 14 14 15 15 15 15 15 15 15 15 15 15 15 16 16 15 15 15 15 14 14 13 13 13 12 11 11 11
8 7 6 6 5 6 6 6 7 8 9 9 9 9 10 11 11 12 13 13 13 14 14 14 14 15 15 15 15 15 15 15 15 15 15 15 15 15 15 15 14 14 13 13 12 12 11 11 10
7 7 6 6 6 5 5 5 6 8 8 9 9 9 10 11 11 11 12 12 12 13 13 13 13 14 14 14 14 14 14 14 14 14 14 14 15 15 15 15 14 14 13 12 12 11 10 10 9
6 6 6 5 4 5 5 5 6 8 8 8 9 9 10 10 11 11 11 11 11 12 12 12 12 13 13 13 13 13 13 13 13 13 13 13 14 14 14 13 13 13 12 11 11 10 10 9 8
7 5 4 4 5 6 7 6 7 8 8 8 7 8 10 10 10 10 10 10 10 10 11 11 11 11 12 12 12 12 12 12 12 12 12 12 12 13 13 12 12 11 11 10 10 9 8 7 7
6 6 5 4 4 5 6 8 8 8 8 8 8 9 9 10 9 9 9 9 9 9 9 10 10 10 10 11 11 11 11 11 11 11 11 11 11 11 11 11 10 10 10 9 8 7 7 6 5
6 5 4 4 4 3 4 6 8 8 8 8 8 9 10 9 9 8 8 8 8 8 8 9 9 9 9 9 10 10 10 10 10 10 10 10 10 10 10 9 9 9 8 8 7 6 5 5 4

GEFSSGP_850_meantemp_072.txt.gz
Temperature
16 16 17 17 20 21 21 22 22 22 22 22 21 22 24 25 25 24 20 19 19 21 20 19 18 17 17 17 16 16 16 16 16 16 15 15 15 15 15 15 15 14 14 14 14 14 14 14 14
15 16 16 18 20 20 21 22 22 22 22 20 21 21 23 24 22 20 19 19 19 19 19 18 18 17 17 16 16 16 16 16 16 16 15 15 15 15 15 15 14 14 14 14 14 14 14 14 14
15 15 17 19 19 20 21 22 22 22 20 20 22 22 23 23 20 18 18 18 18 18 18 18 17 17 16 16 16 16 16 16 16 15 15 15 15 15 15 15 14 14 14 14 14 14 14 14 14
14 15 17 19 19 21 22 22 21 21 21 21 21 23 22 19 18 18 18 18 17 17 17 18 17 17 16 16 16 16 16 16 16 16 15 15 15 15 15 14 14 14 14 14 14 14 14 14 14
14 16 18 18 20 21 22 21 20 22 22 21 21 23 23 19 19 18 18 17 17 17 17 17 17 17 16 16 16 16 16 16 16 16 16 16 15 15 15 14 14 14 14 14 14 14 14 14 14
15 17 18 18 20 21 21 20 20 21 22 21 21 23 22 19 19 18 17 17 17 17 16 16 16 16 16 16 16 16 16 16 16 16 16 16 16 15 15 15 14 14 14 14 14 14 14 14 14
16 17 18 19 20 20 20 19 20 21 22 22 21 22 22 19 19 18 17 17 17 16 16 16 16 16 16 16 16 16 16 16 16 16 16 16 16 15 15 14 14 14 14 14 14 14 14 14 14
14 17 18 19 19 20 20 19 19 20 21 21 20 22 23 18 19 18 17 17 16 16 16 16 16 15 16 16 16 16 16 16 16 16 16 16 16 16 15 14 14 14 14 14 14 14 14 14 14
13 16 17 18 18 19 19 19 19 19 20 19 20 20 19 18 19 18 17 17 16 16 16 16 16 15 15 15 16 16 16 16 16 16 16 16 16 15 15 15 14 14 14 14 14 14 14 14 14
13 15 17 18 18 18 18 18 19 19 20 20 19 18 18 18 18 17 17 16 16 16 16 16 16 16 15 16 16 15 16 16 16 16 16 16 15 15 15 15 14 14 14 14 14 14 14 13 13
14 15 16 15 15 16 17 18 18 19 20 20 20 19 17 17 17 16 16 16 16 16 16 15 16 16 15 16 16 16 16 16 16 15 15 15 15 15 15 15 15 14 14 14 14 14 13 13 13
14 14 15 15 14 15 16 17 17 18 19 18 17 17 16 16 16 15 15 15 15 15 16 15 16 16 15 16 16 16 16 16 16 16 16 16 16 16 15 15 15 14 14 14 14 13 13 13 13
13 13 13 14 14 14 15 16 16 17 17 16 16 16 16 16 16 15 15 15 15 15 15 16 16 16 16 16 16 16 16 16 16 16 16 16 16 16 15 15 15 14 14 14 14 13 13 13 12
13 13 13 14 14 14 15 15 15 16 16 16 16 16 16 16 15 15 15 15 15 15 15 16 16 16 16 16 16 16 16 16 16 16 16 16 16 16 16 15 15 14 14 14 14 13 13 13 12
12 13 13 13 14 14 14 15 16 16 16 16 16 16 16 16 15 15 15 15 15 15 15 16 16 16 16 16 16 16 16 16 16 16 16 16 16 16 15 15 15 14 14 14 13 13 13 13 13
12 12 12 14 14 14 14 15 17 15 15 16 16 17 16 15 15 15 15 15 15 15 15 16 16 16 17 17 16 16 16 16 16 16 16 16 15 15 15 15 15 14 14 14 13 13 13 13 12
11 12 13 13 14 14 14 14 16 14 14 16 16 16 16 16 15 15 15 16 16 16 16 16 16 17 17 17 16 16 16 16 16 16 16 16 15 15 15 14 14 14 14 13 13 13 12 12 12
12 13 13 13 13 13 13 14 15 14 14 15 16 16 15 15 15 16 15 16 16 16 16 16 16 17 17 17 16 16 16 16 16 16 16 16 15 15 14 14 14 14 13 13 13 12 12 12 12
13 13 13 13 13 13 13 14 15 15 14 15 15 15 15 15 15 15 15 16 16 16 16 16 16 17 16 16 16 16 17 17 17 17 16 16 15 15 14 14 14 13 13 13 13 12 12 12 12
12 12 12 12 12 13 13 13 14 14 14 14 14 15 14 14 14 14 15 15 16 16 16 16 16 16 16 16 17 17 17 17 17 17 16 16 16 15 15 14 14 14 13 13 12 12 12 12 12
11 12 12 12 11 11 12 14 14 13 13 12 12 12 13 13 13 13 14 14 15 15 16 16 16 16 16 16 16 16 16 16 16 16 17 17 16 16 16 15 14 14 13 13 13 13 12 12 12
10 11 12 11 12 12 12 14 14 13 13 12 12 12 12 11 12 12 12 13 14 15 15 15 16 16 16 16 16 15 15 15 16 16 16 17 16 16 16 15 14 14 13 13 13 13 12 12 11
10 10 11 11 11 11 12 13 14 13 13 12 12 11 11 11 11 11 12 13 13 14 14 15 15 15 15 15 15 15 15 15 15 15 15 16 16 16 15 15 14 13 13 13 13 13 12 12 11
9 10 9 10 10 10 12 13 14 13 13 12 12 11 10 10 10 10 11 12 13 13 14 14 14 14 14 14 14 14 14 15 14 14 15 15 15 15 15 15 14 13 13 13 12 12 12 12 11
9 9 9 9 10 11 11 11 14 13 12 12 12 11 10 10 10 10 10 11 12 12 13 13 13 13 14 14 14 14 14 14 14 14 14 14 14 14 14 14 13 13 12 12 12 11 11 11 11
9 10 10 11 11 12 9 11 13 12 11 11 10 10 10 10 9 10 10 10 11 12 12 12 12 13 13 13 13 13 13 13 13 13 13 13 13 13 13 13 13 12 11 11 11 11 11 11 10
8 9 10 10 9 11 12 11 11 11 11 11 11 10 10 9 9 9 9 10 10 11 11 11 12 12 12 12 12 13 13 12 12 12 12 12 12 12 12 12 12 11 11 11 10 10 10 10 10
9 9 9 9 10 12 12 12 12 11 11 11 11 11 10 9 9 9 9 9 10 10 10 10 11 11 11 11 11 12 12 12 11 11 11 11 11 11 11 11 10 10 10 10 10 10 9 9 9
8 8 9 10 10 11 12 13 12 12 12 11 11 10 10 9 8 8 8 8 9 9 9 9 9 10 10 10 10 10 10 10 10 10 10 10 10 10 10 10 10 9 9 9 9 9 9 8 8
9 9 9 9 9 9 11 12 11 12 12 11 10 10 9 8 8 7 7 7 8 8 8 8 8 8 9 9 9 9 9 9 9 9 9 9 9 9 9 9 9 8 8 8 8 8 8 7 7

GEFSSGP_850_meantemp_078.txt.gz
Temperature
16 17 17 18 18 18 19 22 24 25 25 25 25 25 25 26 24 21 21 21 20 22 22 21 20 18 18 17 17 17 16 16 16 16 16 16 15 15 15 15 14 14 14 14 14 14 15 15 15
16 16 17 18 17 18 20 22 23 25 25 24 24 24 24 25 23 21 21 20 19 21 21 21 20 18 17 17 17 16 16 16 16 16 16 16 15 15 15 15 15 15 14 14 14 15 15 15 14
15 16 17 17 17 18 20 23 24 25 24 23 24 24 25 24 23 21 20 19 18 19 20 20 19 18 17 17 17 16 16 16 16 16 16 16 16 15 15 15 15 15 14 14 14 15 15 14 14
15 15 17 17 18 19 21 23 24 24 24 24 24 25 24 22 21 20 20 19 18 18 19 19 18 17 17 17 16 16 16 16 16 16 16 16 15 15 15 15 15 15 14 14 15 15 15 14 14
14 16 15 16 18 20 22 23 24 24 24 24 24 24 22 21 21 20 19 19 18 17 18 18 18 17 16 16 16 16 16 16 16 16 16 16 16 15 15 15 15 15 14 14 15 15 14 14 14
14 15 15 15 17 20 22 23 24 24 24 24 24 24 21 20 20 19 19 19 18 18 17 18 17 17 16 16 16 16 16 16 16 16 16 16 16 15 15 15 15 15 14 14 14 15 14 14 14
14 15 15 17 18 19 21 23 23 23 23 24 24 24 21 19 19 19 18 19 18 17 17 17 17 16 16 16 16 16 16 16 16 16 16 16 16 16 15 15 15 15 15 15 15 15 15 14 14
14 15 16 17 18 19 22 23 23 23 23 24 24 23 21 19 19 18 18 18 18 17 17 17 16 16 16 16 16 16 16 16 16 16 17 16 16 16 16 15 15 15 15 15 15 15 15 15 14
14 14 15 17 18 19 22 22 23 22 22 23 23 22 20 19 18 18 18 18 17 17 16 16 16 16 16 16 16 16 16 16 16 16 17 17 16 16 16 16 15 15 15 15 15 15 15 15 14
14 13 15 18 19 20 21 21 22 21 21 22 22 21 20 19 18 18 17 17 17 17 16 16 16 16 16 16 16 16 16 16 16 17 17 17 16 16 16 16 16 15 15 15 15 15 15 15 14
14 14 16 18 19 19 20 20 20 21 20 21 22 22 20 19 18 17 17 17 17 16 16 16 16 16 15 15 16 16 16 16 16 16 16 16 15 15 16 16 16 16 15 15 15 15 15 14 14
14 15 16 17 18 17 18 19 19 20 20 21 21 21 21 19 18 18 17 16 16 16 16 16 16 15 15 15 15 15 15 16 16 15 16 15 15 15 16 16 16 16 16 15 15 15 15 14 13
14 15 16 17 16 17 17 18 18 19 20 19 19 20 20 20 19 18 17 17 16 16 16 16 16 15 15 15 15 15 15 15 15 15 15 15 15 15 16 16 16 16 15 15 15 15 14 14 13
14 15 16 16 16 16 16 17 17 18 19 19 19 19 19 19 19 18 18 17 16 16 15 15 16 15 15 15 15 15 15 15 15 15 15 15 15 15 15 15 15 15 15 15 15 15 14 14 13
14 14 14 15 15 15 16 15 16 17 18 18 18 19 19 19 19 18 18 17 16 16 15 15 15 15 15 15 15 15 15 15 15 15 15 15 15 15 15 15 15 15 15 14 14 14 13 13 13
13 12 12 14 15 15 14 13 16 17 17 18 18 18 19 18 18 18 18 17 17 16 15 15 15 15 15 15 15 15 15 15 15 15 15 16 15 15 15 15 15 15 15 14 14 14 13 13 13
11 11 11 13 15 15 14 13 16 17 17 17 18 18 18 18 18 18 18 17 17 16 16 15 15 15 15 15 15 15 15 15 15 15 15 16 16 15 15 15 15 14 14 14 14 13 13 13 13
10 11 12 13 14 14 14 14 15 17 17 17 17 18 18 18 18 18 17 17 17 16 16 16 15 15 15 15 15 15 15 15 15 15 15 15 15 15 15 15 15 14 14 14 13 13 13 13 13
13 13 13 14 15 14 14 14 15 16 16 16 17 17 18 18 18 18 17 17 16 16 16 16 16 15 15 15 15 15 15 15 15 15 15 15 15 15 15 15 14 14 14 14 13 13 13 12 12
12 12 13 14 15 14 13 14 15 16 16 16 17 17 17 18 17 17 17 16 16 16 16 16 16 16 15 15 15 15 15 15 16 16 16 15 15 15 15 14 14 14 13 13 13 13 12 12 12
11 12 13 13 13 14 13 13 14 15 16 16 16 16 16 17 17 16 16 15 15 15 15 15 15 15 15 15 15 15 15 15 15 16 16 16 15 15 14 14 14 13 13 13 13 12 12 12 12
11 13 13 13 12 11 12 11 14 14 14 14 15 15 15 15 15 15 15 14 14 14 15 15 15 15 15 15 15 15 15 15 15 15 16 16 15 15 14 14 13 13 13 12 12 12 12 12 11
11 12 12 12 12 11 12 11 13 14 14 14 14 15 15 14 14 14 14 13 13 13 14 14 14 14 15 15 14 14 14 14 14 14 14 14 14 14 14 13 13 13 12 12 12 12 11 11 11
11 11 11 11 10 9 11 11 12 13 14 14 14 14 14 13 13 12 12 12 12 12 13 13 13 14 14 14 14 14 14 14 14 13 13 13 13 13 13 13 12 12 12 12 11 11 11 11 11
10 9 8 8 8 9 12 12 13 14 14 13 13 13 13 12 12 12 11 11 11 11 12 12 13 13 13 13 13 13 13 13 13 13 13 13 12 12 12 12 12 12 11 11 11 11 11 11 11
9 9 9 9 9 10 12 12 13 13 13 14 13 13 12 12 12 11 11 10 10 11 11 11 12 12 12 12 12 12 12 12 12 12 12 12 12 12 12 11 11 11 11 11 11 10 10 10 10
9 9 10 9 10 10 11 12 11 13 12 12 12 12 12 12 11 11 10 10 10 10 10 11 11 11 11 11 11 12 12 11 11 11 11 11 11 11 11 11 11 10 10 10 10 10 10 10 10
9 10 9 8 9 10 11 12 11 10 11 11 11 12 12 11 11 10 9 9 9 9 10 10 10 10 10 10 11 11 10 10 10 10 10 10 10 10 10 10 10 10 9 9 9 9 9 9 9
8 9 9 9 10 9 10 11 13 11 11 11 11 12 12 11 10 10 9 9 9 9 9 9 9 9 9 9 9 9 9 9 9 9 9 9 9 9 9 9 9 9 9 8 8 8 8 8 8
9 9 9 8 9 10 9 10 12 12 12 11 12 12 11 11 10 9 9 8 8 8 8 8 8 8 8 8 8 8 8 8 8 8 8 8 8 8 8 8 8 8 8 7 7 7 7 7 7

GEFSSGP_850_meantemp_084.txt.gz
Temperature
16 16 17 17 14 12 14 15 17 19 20 22 22 22 20 20 21 20 19 20 20 20 19 19 19 18 17 17 17 17 17 16 16 16 16 16 15 15 15 15 15 15 15 15 15 15 15 14 14
15 16 16 16 13 13 14 15 17 19 21 22 22 22 21 20 20 20 19 19 20 20 19 19 18 18 17 17 17 17 17 16 16 16 16 16 15 15 15 15 15 15 15 15 15 15 15 14 14
15 15 16 12 12 13 15 17 17 19 21 22 22 22 21 20 20 20 20 20 19 20 19 18 18 18 17 17 17 17 17 17 16 16 16 16 16 16 15 15 15 15 15 15 15 15 15 14 14
14 15 15 12 13 14 15 17 18 19 21 22 22 20 20 20 21 21 20 20 19 19 19 18 18 17 17 17 17 17 17 17 17 17 17 16 16 16 16 15 15 15 15 15 15 15 15 14 14
14 14 12 11 12 14 15 17 18 18 19 22 22 19 19 20 20 21 20 19 19 19 18 17 17 17 17 17 17 17 17 17 17 17 17 17 16 16 16 15 15 15 15 15 15 15 15 14 14
13 12 11 11 12 14 16 18 18 18 19 21 21 19 18 19 19 19 19 19 19 19 18 17 17 17 17 17 17 17 17 17 17 17 17 17 17 16 16 16 15 15 15 15 15 15 15 15 14
12 10 11 12 13 14 16 18 18 18 18 20 21 18 18 18 18 18 18 18 18 18 17 16 16 16 16 16 16 17 17 17 17 17 17 17 17 17 16 16 16 16 16 16 16 15 15 15 15
12 10 11 11 13 14 17 18 19 19 19 21 21 18 18 18 18 18 17 17 17 17 17 16 16 16 16 16 16 17 17 17 17 17 17 17 17 17 16 16 16 16 16 16 16 15 15 15 15
12 10 11 12 13 15 17 17 19 19 20 20 20 20 20 18 18 17 17 17 17 17 16 16 16 16 16 16 16 17 17 17 17 17 18 17 17 17 17 16 16 16 16 16 16 15 15 15 15
11 10 11 13 14 15 17 17 18 19 19 19 19 19 19 18 18 18 17 17 17 16 16 16 16 16 16 16 16 17 17 17 17 18 18 18 17 17 17 16 16 16 16 16 16 15 15 15 15
10 10 12 14 15 16 16 17 18 18 17 18 19 19 18 18 18 18 18 18 17 17 16 16 16 16 16 16 16 16 17 17 17 17 17 17 17 17 17 17 16 16 16 16 16 15 15 15 15
10 11 13 14 15 16 16 16 17 17 18 19 20 19 19 18 18 18 18 18 17 17 16 16 16 16 16 16 16 16 17 17 17 18 18 18 18 17 17 17 17 16 16 16 16 15 15 15 15
10 11 13 14 14 15 16 16 16 17 18 19 19 19 19 19 18 18 18 17 17 16 16 16 16 16 16 16 16 16 16 17 17 17 17 17 17 17 17 17 16 16 16 16 16 15 15 15 15
10 11 12 13 14 15 15 15 15 16 17 18 18 18 18 18 18 18 17 17 17 17 16 16 16 15 15 15 15 16 16 16 16 16 17 17 17 17 17 17 16 16 16 16 15 15 15 15 14
11 11 11 12 13 14 14 14 14 16 17 17 17 18 18 18 18 18 18 18 17 17 16 16 16 15 15 15 15 15 15 16 16 16 16 16 17 17 16 16 16 16 16 16 15 15 15 14 14
10 10 10 11 12 13 13 12 14 16 16 16 17 17 18 18 18 18 18 18 17 17 16 16 16 15 15 15 15 15 15 15 15 15 16 16 16 16 16 16 16 16 15 15 15 15 14 14 14
9 8 9 11 12 12 12 12 13 15 16 16 16 17 17 18 18 17 17 17 17 17 17 16 16 16 15 15 15 15 15 15 15 15 15 15 15 15 15 15 15 15 15 15 14 14 14 14 13
8 8 9 9 11 11 11 11 12 14 15 15 16 16 17 17 18 18 17 17 17 17 16 16 16 16 15 15 15 15 15 15 14 14 15 15 15 15 15 15 15 14 14 14 14 14 13 13 13
9 9 9 10 11 11 10 11 11 13 14 14 15 16 16 17 17 17 17 17 17 17 16 16 16 16 15 15 15 15 15 15 14 14 14 14 14 14 14 14 14 14 14 14 14 13 13 13 12
9 8 9 10 11 11 10 10 11 12 13 14 14 15 16 16 17 17 17 17 17 17 16 16 16 16 15 15 15 15 15 15 15 14 14 14 14 14 14 14 14 14 13 13 13 13 12 12 12
8 8 8 9 10 10 10 10 10 11 12 14 15 15 16 16 16 16 16 16 16 16 16 16 16 15 15 15 15 14 14 14 14 14 14 14 14 14 14 14 14 13 13 13 13 12 12 12 12
8 9 9 9 9 9 9 8 9 10 11 11 13 14 15 15 16 16 16 16 16 16 16 15 15 15 15 15 15 14 14 14 14 15 14 14 14 14 14 13 13 13 13 13 12 12 12 12 11
8 9 9 9 8 8 8 8 8 9 10 11 12 13 14 15 15 15 15 15 15 15 15 15 15 15 15 15 14 14 14 14 14 14 14 14 14 14 13 13 13 13 13 12 12 12 12 11 11
9 9 8 8 7 8 8 8 8 8 10 11 11 13 13 14 14 14 14 14 14 14 14 14 14 14 14 14 14 14 14 14 14 14 14 14 14 13 13 13 13 12 12 12 12 12 11 11 11
8 7 7 7 7 7 8 8 8 9 10 10 10 11 13 13 13 13 13 13 13 13 13 13 13 13 13 13 13 13 13 13 13 13 13 13 13 13 13 12 12 12 12 12 11 11 11 11 11
7 7 7 7 7 7 8 7 8 9 9 11 11 12 12 12 12 12 12 12 12 12 12 12 12 12 13 12 12 12 12 12 12 12 12 12 12 12 12 12 11 11 11 11 11 11 10 10 10
7 7 7 6 6 6 7 8 9 9 8 8 9 10 10 11 11 11 11 11 11 11 11 11 11 11 12 12 12 12 12 12 12 12 11 11 11 11 11 11 11 11 10 10 10 10 10 10 10
7 7 6 6 6 7 8 8 8 9 8 8 8 9 10 10 10 11 10 10 10 10 10 10 10 11 11 11 11 11 11 11 11 11 11 10 10 10 10 10 10 10 10 9 9 9 9 9 9
7 7 6 6 6 6 7 8 9 8 8 7 8 9 10 10 10 10 10 10 9 9 9 9 10 10 10 10 10 10 10 10 10 10 10 10 10 9 9 9 9 9 9 9 8 8 8 8 8
7 7 6 6 6 5 6 7 9 8 8 8 8 9 10 10 10 10 9 9 9 9 9 9 9 9 9 9 9 9 9 9 9 9 9 9 9 8 8 8 8 8 8 8 8 7 7 7 7

GEFSSGP_850_meantemp_090.txt.gz
Temperature
15 15 16 16 14 11 13 14 15 16 17 19 20 20 19 19 19 20 20 21 20 19 17 17 17 17 17 17 17 17 16 16 16 16 16 16 15 15 15 15 15 16 16 15 15 15 15 15 15
14 15 15 15 12 12 13 14 15 16 18 19 20 19 19 19 19 20 20 20 19 19 17 17 17 17 17 17 17 17 16 16 16 16 16 16 16 15 15 15 15 16 16 16 16 15 15 15 15
14 14 15 12 11 12 14 14 14 17 18 19 19 19 19 19 19 19 20 19 19 19 18 17 17 17 17 17 17 17 16 16 16 16 16 16 16 15 15 15 16 16 16 16 15 15 15 15 15
13 14 13 11 12 12 15 16 15 17 18 19 19 18 18 18 19 19 19 19 19 18 18 17 17 17 17 17 17 17 16 16 16 16 16 16 16 16 16 15 16 16 16 16 15 15 15 15 15
13 13 11 11 12 12 13 15 16 17 17 18 18 17 18 19 19 19 19 19 19 18 18 17 16 16 17 17 17 16 16 16 16 16 16 16 16 16 16 16 16 16 16 15 15 15 15 15 15
12 11 11 11 11 13 13 16 17 17 17 18 18 17 18 19 19 19 19 18 18 18 17 17 16 16 16 16 16 16 16 17 17 16 17 17 16 16 16 16 16 16 16 15 15 15 15 15 15
11 10 10 11 12 13 14 16 16 16 16 18 18 17 17 18 18 18 18 18 17 17 17 16 16 16 16 16 16 16 16 16 17 17 17 17 16 16 16 16 16 16 16 16 16 15 15 15 15
11 10 10 10 11 13 15 16 17 17 17 18 18 17 17 18 18 17 17 17 16 16 16 16 16 16 16 16 16 16 16 16 16 17 17 17 17 16 16 16 16 16 16 16 16 15 15 15 15
11 9 10 10 11 13 15 16 17 17 18 18 18 18 18 18 17 17 16 16 16 15 16 16 16 16 16 16 16 16 16 16 16 16 17 17 17 16 16 16 16 16 16 16 16 15 15 15 15
10 9 10 11 12 13 15 16 17 17 16 17 17 18 18 18 17 16 16 16 16 15 15 15 16 15 15 16 16 16 16 16 16 16 17 17 17 16 16 16 16 16 16 16 16 15 15 15 15
9 9 11 12 13 14 15 15 16 16 16 16 17 18 17 17 17 16 16 16 16 16 16 15 15 15 15 15 16 16 16 16 16 16 16 17 16 16 16 16 16 16 16 16 16 15 15 15 15
9 9 11 12 14 14 14 15 15 16 17 18 18 18 17 17 17 17 16 16 16 16 16 16 15 15 15 15 15 16 16 16 16 16 17 17 16 16 16 16 16 16 16 16 15 15 15 15 15
9 10 11 13 13 13 14 14 14 15 16 17 17 17 17 17 17 17 17 16 16 16 16 16 16 15 15 15 15 15 16 16 16 16 16 16 16 16 16 16 16 16 15 15 15 15 15 15 15
9 10 11 12 12 13 13 13 14 15 16 17 17 17 17 17 17 17 17 17 16 17 16 16 16 16 15 15 15 15 15 15 15 16 16 16 16 16 16 16 15 15 15 15 15 15 14 14 14
10 9 10 11 12 12 13 12 13 15 15 16 16 17 17 17 17 18 18 17 17 17 17 16 16 16 15 15 15 15 15 15 15 15 15 16 16 16 16 15 15 15 15 15 14 14 14 14 14
9 9 9 10 10 12 12 11 12 14 15 15 16 16 16 17 17 17 17 17 17 17 17 16 16 16 15 15 15 15 15 15 15 15 15 15 15 15 15 15 15 15 14 14 14 14 14 14 14
8 8 8 9 10 10 11 11 12 14 14 14 15 16 16 16 17 17 17 17 17 17 17 16 16 16 15 15 15 15 15 14 14 14 14 15 15 15 15 15 15 14 14 14 14 14 13 13 13
7 7 8 8 9 10 10 10 11 12 13 14 14 15 15 16 17 17 17 17 17 17 16 16 16 16 15 15 15 15 15 14 14 14 14 14 14 14 14 14 14 14 13 13 13 13 13 13 12
7 7 8 8 9 10 9 10 10 11 12 12 13 14 15 16 16 17 17 17 17 16 16 16 16 16 15 15 15 15 15 15 14 14 14 14 14 14 14 14 14 13 13 13 13 12 12 12 12
7 7 8 8 9 10 9 9 10 10 11 12 13 14 15 15 16 16 16 17 17 17 16 16 16 16 15 15 15 15 15 15 15 14 14 14 14 14 14 14 13 13 13 13 12 12 12 12 12
7 7 7 8 9 9 9 9 9 10 11 12 13 14 14 15 15 16 16 16 16 16 16 16 16 16 16 15 15 15 15 14 14 14 14 14 14 14 14 13 13 13 13 13 13 12 12 12 12
7 7 8 8 8 7 8 7 8 8 9 10 11 13 14 14 15 15 15 16 16 16 16 16 16 16 15 15 15 15 15 15 15 14 14 14 14 14 14 13 13 13 13 13 13 12 12 12 11
7 8 8 7 7 7 7 7 7 8 8 9 10 12 14 14 15 15 15 15 15 16 16 16 15 15 15 15 15 15 15 14 14 14 14 14 14 14 13 13 13 13 13 13 13 12 12 12 11
7 7 7 6 6 7 6 7 7 7 8 9 10 12 13 14 14 14 14 15 15 15 15 15 15 15 15 15 15 14 14 14 14 14 14 14 13 13 13 13 13 13 13 13 12 12 12 11 11
6 6 6 6 6 6 6 7 7 8 8 8 9 11 12 13 13 14 14 14 14 14 14 14 14 14 14 14 14 14 14 14 13 13 13 13 13 13 13 13 13 13 12 12 12 12 11 11 11
6 6 6 6 6 5 6 6 7 8 8 9 9 10 11 12 13 13 13 13 13 13 13 13 13 14 13 13 13 13 13 13 13 13 13 13 12 12 12 12 12 12 12 11 11 11 11 11 10
6 6 6 5 5 5 6 6 6 8 7 7 8 9 10 11 11 12 12 12 12 12 12 12 13 13 13 12 12 12 12 12 12 12 12 12 12 12 12 12 12 11 11 11 11 10 10 10 10
6 6 5 5 5 6 7 6 7 8 8 7 7 7 8 9 10 11 11 11 11 11 11 11 11 11 11 11 11 11 11 11 11 11 11 11 11 11 11 11 11 10 10 10 10 9 9 9 9
5 6 5 5 5 5 6 7 8 7 8 7 6 7 8 9 9 10 10 10 10 10 10 10 10 10 10 10 10 10 10 10 10 10 10 10 10 10 10 10 10 9 9 9 9 9 8 8 8
6 6 5 5 5 4 5 7 8 7 6 6 7 8 8 9 9 9 9 10 10 10 10 10 10 9 9 9 9 9 9 9 10 9 9 9 9 9 9 9 9 8 8 8 8 8 7 7 7

GEFSSGP_850_meantemp_096.txt.gz
Temperature
14 15 15 16 19 20 21 22 21 22 22 22 22 23 24 25 25 24 19 19 19 18 17 17 17 17 17 16 16 16 16 16 16 16 16 16 16 16 16 16 16 15 15 15 15 15 15 15 15
13 14 15 17 19 20 21 21 21 22 22 20 21 22 23 23 20 19 18 18 18 18 17 17 17 17 17 16 16 16 16 16 16 16 16 16 16 16 16 16 16 16 15 15 15 15 15 15 15
13 14 16 18 18 20 21 21 22 21 20 20 21 21 22 21 19 18 18 18 17 17 17 16 17 17 16 16 16 16 16 16 16 16 16 16 16 16 16 16 16 16 16 16 16 15 16 15 15
13 14 15 17 18 20 21 21 21 21 20 20 21 22 20 17 17 17 18 17 17 16 16 16 16 16 16 16 16 16 16 16 16 16 16 16 15 16 16 16 16 16 16 16 15 15 15 15 15
13 15 16 17 18 20 20 20 20 21 21 21 21 22 20 17 17 17 17 16 16 16 16 16 16 16 16 16 16 16 16 16 16 16 16 16 15 16 16 16 16 16 16 16 15 15 15 15 15
13 15 16 17 18 19 20 19 19 21 21 20 21 21 19 17 17 17 16 16 16 16 16 16 16 16 16 16 16 16 16 16 16 16 16 16 16 16 16 16 16 16 16 15 15 15 15 15 15
13 15 16 18 18 19 19 18 19 20 21 20 20 21 18 16 16 16 16 16 16 16 16 16 16 16 16 16 16 16 16 16 16 16 16 16 16 16 16 16 16 16 16 15 15 15 15 15 15
12 15 16 18 18 19 19 18 18 20 20 19 19 21 19 16 16 16 16 16 16 15 15 16 16 15 15 16 16 16 16 16 16 16 16 16 16 16 16 16 16 16 16 16 15 15 15 15 15
12 13 15 17 18 19 18 18 18 18 19 18 18 18 17 16 16 16 15 15 15 15 15 15 15 15 15 15 16 16 16 16 16 16 16 16 15 15 16 16 16 16 16 16 16 15 15 15 15
12 13 15 17 18 18 18 18 18 18 19 18 18 17 16 16 16 15 15 15 15 15 15 15 15 15 15 15 15 15 15 16 15 15 16 15 15 15 15 16 16 16 16 16 16 15 15 15 14
12 14 16 16 15 16 17 17 18 18 19 19 19 17 16 16 16 16 16 16 15 15 15 15 15 15 15 15 15 15 15 15 15 15 15 15 15 15 15 15 15 15 15 15 15 15 15 14 14
12 14 14 14 14 15 16 17 17 18 19 18 18 17 16 16 16 16 16 15 15 15 15 15 15 15 15 15 15 15 15 15 15 15 15 15 15 15 15 15 15 15 15 15 15 14 14 14 14
12 13 13 13 13 14 15 16 17 17 17 17 17 16 16 16 16 16 16 16 16 15 15 15 15 15 15 15 15 15 15 15 15 15 15 15 15 15 15 15 15 15 15 15 15 14 14 14 14
12 12 13 13 13 14 15 16 16 17 16 16 16 16 16 16 16 16 16 16 16 16 15 15 15 15 15 15 15 15 15 15 15 15 15 15 15 15 15 15 15 15 15 14 14 14 14 14 13
11 12 12 13 13 14 14 15 16 16 15 16 16 16 16 16 16 16 16 16 16 16 16 15 15 15 15 15 15 15 15 15 15 15 15 15 15 15 15 15 15 14 14 14 14 14 14 14 14
11 11 11 13 13 13 14 15 16 15 15 16 16 16 16 16 16 16 16 16 16 16 16 16 15 15 15 15 15 15 15 15 15 15 15 15 15 15 15 15 15 14 14 14 14 13 13 13 13
9 10 11 12 13 13 14 15 16 15 15 16 16 16 16 16 16 16 16 16 16 16 16 16 15 15 15 15 15 15 14 14 14 14 15 15 14 15 14 14 14 14 14 14 13 13 13 13 13
9 10 11 12 12 13 13 14 15 14 15 16 16 16 16 16 16 16 16 16 16 16 16 16 16 15 15 15 15 15 14 14 14 14 14 14 14 14 14 14 14 14 14 14 13 13 13 13 13
10 10 11 11 12 12 13 14 15 15 15 15 16 16 16 16 16 16 16 16 16 16 16 16 16 16 15 15 15 15 15 15 14 14 14 14 14 14 14 14 14 14 13 13 13 13 13 13 12
8 9 10 10 11 12 13 13 14 15 15 15 16 16 16 15 15 15 16 16 16 16 16 16 16 16 15 15 15 15 15 15 14 14 14 14 14 14 14 14 14 13 13 13 13 13 13 12 12
8 9 10 10 10 11 12 12 14 15 14 14 14 15 15 15 15 15 15 15 16 16 16 16 16 16 16 15 15 15 14 14 14 14 14 14 14 14 14 14 13 13 13 13 13 13 13 12 12
8 9 10 10 10 11 11 12 14 15 15 15 15 15 15 15 15 15 15 15 16 16 16 16 16 16 16 15 15 15 14 14 14 15 15 14 14 14 14 14 13 13 13 13 13 13 13 12 12
8 9 9 10 10 10 11 12 14 14 14 15 16 15 15 14 14 14 15 15 15 15 15 16 16 16 16 15 15 15 15 14 14 14 14 14 14 14 14 13 13 13 13 13 13 13 12 12 12
8 8 9 9 9 9 11 11 13 14 15 15 16 15 14 14 14 14 14 15 15 15 15 15 15 15 15 15 15 15 15 14 14 14 14 14 14 14 13 13 13 13 13 13 13 12 12 12 11
7 8 8 8 8 10 11 11 13 14 14 14 15 14 13 13 13 13 14 14 14 15 15 15 15 15 15 15 15 14 14 14 14 14 14 14 13 13 13 13 13 13 13 12 12 12 12 11 11
7 8 9 9 10 10 9 11 14 13 12 11 12 12 11 12 12 12 13 13 14 14 14 14 14 14 14 14 14 14 14 14 13 13 13 13 13 13 13 12 12 12 12 12 12 11 11 11 11
7 7 8 9 9 10 11 11 13 12 12 12 11 11 11 11 11 11 12 13 13 13 13 14 13 13 13 13 13 13 13 13 13 13 13 12 12 12 12 12 12 12 11 11 11 11 11 10 10
7 8 8 8 9 10 11 11 13 13 13 12 12 11 11 10 10 10 11 12 12 12 12 12 12 12 12 13 12 12 12 12 12 12 12 12 11 11 11 11 11 11 11 10 10 10 10 9 9
7 7 7 8 9 10 11 12 12 12 12 12 12 11 10 9 9 9 10 10 11 11 11 11 11 11 11 11 11 11 11 11 11 11 11 11 10 10 10 10 10 10 10 10 9 9 9 9 8
7 8 8 8 8 9 11 12 12 11 11 10 10 9 9 8 8 8 9 9 10 10 10 10 10 11 11 11 11 10 10 10 10 10 10 10 9 9 9 9 9 9 9 9 8 8 8 8 8

GEFSSGP_850_meantemp_102.txt.gz
Temperature
14 15 15 16 16 17 18 20 23 24 25 26 26 26 26 24 23 20 20 19 19 20 19 18 17 17 17 16 16 16 16 16 16 16 16 16 16 15 15 15 15 15 16 15 15 15 15 15 15
14 14 15 16 16 16 18 21 23 24 25 25 25 25 25 23 21 20 20 19 19 20 19 18 17 17 17 16 16 16 16 16 16 16 16 16 16 16 15 15 15 15 15 15 15 15 15 15 15
13 14 15 15 16 17 19 21 22 24 24 24 24 24 24 22 21 20 19 18 18 19 19 18 17 17 16 16 16 16 16 16 16 16 16 16 16 16 15 15 16 15 16 16 16 16 16 16 15
13 14 15 15 16 18 20 22 23 23 23 24 24 24 21 20 20 19 19 18 17 18 18 18 17 16 16 16 16 16 16 16 16 16 16 16 16 16 16 16 16 16 16 16 16 16 16 16 15
12 13 14 15 17 19 21 22 23 22 22 23 24 23 20 19 19 19 18 18 17 17 18 17 17 16 16 16 16 16 16 16 16 16 16 16 16 16 16 16 16 16 16 16 16 16 16 16 15
12 13 13 14 17 19 21 22 22 22 22 23 23 22 18 18 18 18 18 18 17 17 17 17 16 16 16 16 16 16 16 16 16 16 16 16 16 16 16 16 16 16 16 16 16 16 16 16 16
11 12 13 15 17 19 21 21 21 21 22 23 23 21 18 17 18 18 18 18 17 17 17 17 16 16 16 16 16 16 16 16 16 16 16 16 16 16 16 16 16 16 16 16 16 16 16 16 16
11 12 13 15 17 19 21 21 21 21 21 22 22 20 18 17 17 17 17 17 17 16 16 16 16 16 16 16 15 16 16 16 16 15 16 16 16 16 16 16 16 16 16 16 16 16 16 16 16
11 11 13 15 17 18 20 20 20 20 20 20 20 19 18 17 17 17 17 17 17 16 16 16 16 16 16 16 15 15 16 15 15 15 16 16 16 16 16 16 16 16 16 16 16 16 16 16 16
11 11 13 16 17 18 19 19 20 20 20 20 19 18 17 17 16 17 17 17 17 16 16 16 16 16 16 16 16 15 15 15 15 16 15 16 15 15 16 16 16 16 16 16 16 16 16 16 16
11 12 14 15 16 16 17 17 18 19 18 19 18 17 17 16 16 16 17 17 17 16 16 16 16 16 15 16 16 15 15 15 15 15 15 15 15 15 15 15 16 16 16 16 16 16 16 15 15
12 13 14 15 14 14 15 16 17 18 19 19 19 18 17 16 16 16 16 16 16 16 16 16 16 16 16 16 15 15 15 15 15 15 15 15 15 15 15 15 16 16 16 16 16 16 15 15 14
12 13 13 14 13 14 15 15 16 18 18 18 18 17 17 17 17 17 17 17 16 16 16 16 16 16 16 16 15 15 15 15 15 15 15 15 15 15 15 15 15 15 15 15 15 15 14 14 14
12 12 13 13 13 13 14 15 16 16 18 17 17 17 17 17 17 17 17 16 16 16 16 16 16 16 16 16 15 15 15 15 15 15 15 15 15 14 14 14 15 15 14 14 15 14 14 14 14
11 11 12 12 13 13 14 14 15 16 17 17 17 17 17 17 17 17 17 17 16 16 16 16 16 16 16 16 15 15 15 15 15 15 15 14 14 14 14 14 14 14 14 14 14 14 14 14 14
11 10 10 12 13 13 13 12 15 16 17 17 17 17 17 17 17 17 17 17 16 16 16 16 16 16 16 16 16 15 15 15 15 15 15 14 14 14 14 14 14 14 14 14 14 14 14 14 14
9 9 10 12 13 13 13 13 15 16 16 17 17 17 17 17 17 17 17 17 16 16 16 16 16 16 16 16 15 15 15 15 15 15 15 15 14 14 14 14 14 14 14 14 14 14 14 14 14
9 9 10 11 13 13 12 13 15 16 16 17 17 17 17 17 17 17 17 17 17 16 16 16 16 16 16 15 15 15 15 15 15 15 15 15 14 14 14 14 14 14 14 14 14 14 14 13 13
9 9 10 12 13 12 12 13 14 15 16 16 17 17 17 17 17 17 17 17 17 16 16 16 16 16 16 15 15 15 15 15 15 15 14 14 14 14 14 14 14 14 14 14 14 13 13 13 13
9 9 10 11 12 12 12 13 14 15 15 16 17 17 17 17 17 17 17 17 17 16 16 16 16 16 16 15 15 15 15 15 15 15 14 14 14 14 14 14 14 14 14 14 13 13 13 13 13
9 8 9 10 11 11 11 11 13 14 15 16 16 17 17 17 17 17 17 17 16 16 16 16 16 16 15 15 15 15 15 15 14 14 15 14 14 14 14 14 14 14 14 13 13 13 13 13 13
8 9 10 10 9 9 10 10 12 13 14 15 16 16 17 17 17 17 17 16 16 16 16 16 16 16 15 15 15 15 15 15 15 15 15 15 14 14 14 14 14 14 14 13 13 13 13 12 12
9 10 10 10 9 9 10 10 11 13 13 14 15 16 16 17 17 17 16 16 16 16 16 16 16 16 15 15 15 15 15 15 15 15 15 14 14 14 14 14 14 14 13 13 13 13 13 12 12
9 9 9 9 8 8 9 10 11 13 14 15 15 16 16 16 16 16 16 16 15 15 15 15 15 15 15 15 15 15 14 14 14 14 14 14 14 14 14 14 14 13 13 13 13 13 12 12 12
8 7 7 7 7 8 11 11 11 14 15 15 15 16 16 16 16 15 15 15 15 15 15 15 15 15 15 15 15 14 14 14 14 14 14 14 14 13 13 13 13 13 13 13 12 12 12 12 12
7 7 7 7 8 9 11 11 12 14 14 15 15 15 15 15 15 15 15 14 14 14 14 14 14 14 14 14 14 14 14 14 14 13 13 13 13 13 13 13 12 12 12 12 12 12 11 11 11
7 7 8 7 8 8 10 12 12 13 13 13 14 14 14 14 14 14 14 14 13 13 14 14 14 14 14 14 14 14 14 13 13 13 13 13 13 12 12 12 12 12 12 11 11 11 11 11 10
8 8 7 7 7 8 10 11 11 12 12 13 13 13 13 13 13 13 13 13 12 12 13 13 13 13 13 13 13 13 13 13 13 13 13 12 12 12 12 12 11 11 11 10 10 10 10 10 10
7 7 8 8 8 8 8 10 12 12 12 12 12 13 13 12 12 12 11 11 11 12 12 12 12 12 13 12 12 12 12 12 12 12 12 11 11 11 11 10 10 10 10 10 10 9 9 9 9
8 8 8 7 7 8 8 9 12 11 11 12 12 12 12 11 11 11 11 10 10 11 11 11 11 11 11 11 11 11 11 11 11 11 11 11 10 10 10 10 9 9 9 9 9 9 9 8 8

GEFSSGP_850_meantemp_108.txt.gz
Temperature
12 13 14 14 13 12 13 14 16 18 19 21 21 21 20 19 20 20 19 19 19 18 17 17 17 17 16 16 16 16 16 16 16 16 16 16 16 16 16 16 16 16 16 16 16 16 15 15 15
12 13 13 13 12 12 13 14 16 18 20 21 21 20 19 19 19 18 18 18 19 18 17 17 17 17 16 16 16 16 16 16 16 16 16 16 16 16 16 16 16 16 16 16 16 15 15 15 15
12 12 13 11 11 12 14 15 17 19 20 21 20 20 19 18 18 18 18 18 18 18 17 17 17 16 16 16 16 16 16 16 16 16 16 16 16 16 16 16 16 16 16 16 16 15 15 15 15
11 12 12 11 12 13 15 16 17 18 20 20 19 18 19 18 19 19 18 18 18 18 17 17 16 16 16 16 16 16 16 16 16 16 16 16 16 16 16 16 16 16 16 16 16 15 15 15 15
11 11 10 11 12 14 14 16 18 18 19 20 19 17 18 18 19 19 18 18 18 17 17 16 16 16 16 16 16 16 16 16 16 16 16 16 16 16 16 16 16 16 16 16 16 15 15 15 15
10 10 10 11 12 14 15 17 18 18 18 19 18 16 17 18 19 18 18 18 18 17 17 16 16 16 16 16 16 16 16 16 16 16 16 16 16 16 16 16 16 16 16 16 16 16 15 15 15
9 9 10 11 12 14 15 17 17 17 17 18 18 16 16 17 18 18 17 17 17 17 16 16 16 16 16 16 16 16 16 16 16 16 16 16 16 16 16 16 16 16 16 16 16 16 16 15 15
9 9 10 11 12 13 16 17 17 17 17 18 18 16 16 17 17 17 17 17 17 17 16 16 16 16 16 16 16 16 16 16 16 16 16 16 16 16 16 16 16 16 16 16 16 16 16 16 15
9 9 10 11 12 13 15 15 16 17 17 18 18 18 18 17 17 17 16 16 16 16 16 16 16 16 16 16 16 16 16 16 16 16 16 16 16 16 16 16 16 16 16 16 16 16 16 16 15
9 9 10 11 12 12 13 14 14 16 16 16 17 17 17 17 17 16 16 16 16 16 16 16 16 16 15 15 16 16 16 16 16 16 16 16 16 16 16 16 16 16 16 16 16 16 16 15 15
9 9 10 11 11 12 12 13 14 14 14 15 15 16 16 17 17 16 16 16 16 16 16 16 16 15 15 15 15 15 16 15 16 16 16 16 16 16 16 16 16 16 16 16 16 16 16 15 15
9 9 10 10 11 11 12 12 13 13 14 15 16 16 16 16 16 17 16 16 16 16 16 16 15 15 15 16 15 15 15 16 15 16 16 16 16 16 16 16 16 16 16 16 16 16 16 15 15
8 9 10 10 11 11 11 12 12 13 14 14 15 16 16 16 16 16 16 16 16 16 16 16 15 15 15 15 15 15 15 16 16 16 16 16 16 16 16 16 16 16 16 16 16 16 15 15 15
9 9 9 10 10 11 11 11 12 13 13 14 14 15 15 16 16 16 16 16 16 16 16 16 16 16 15 15 15 15 15 15 16 16 16 16 16 16 16 16 16 16 16 16 15 15 15 15 15
9 9 9 10 10 10 11 11 11 12 13 13 13 14 15 15 16 16 16 16 16 16 16 16 16 15 15 15 15 15 15 15 15 15 15 15 15 16 16 16 16 16 16 15 15 15 15 14 14
8 8 8 9 10 10 10 10 12 12 12 12 13 14 14 15 16 16 16 16 16 16 16 16 16 16 15 15 15 15 15 15 15 15 15 15 15 15 15 15 16 15 15 15 15 15 14 14 14
7 7 8 9 10 10 10 10 11 12 12 12 13 14 14 15 15 16 16 16 16 16 16 15 16 16 15 15 15 15 15 15 15 15 15 15 15 15 15 15 15 15 15 15 14 14 14 14 14
7 7 8 8 9 10 9 10 11 12 12 12 13 13 14 15 15 16 16 16 16 16 16 15 15 15 15 15 15 15 15 15 15 15 15 15 15 14 14 15 15 15 14 14 14 14 14 14 13
7 7 8 8 9 9 9 10 10 11 11 12 12 13 14 15 15 15 16 16 16 16 16 15 15 15 15 15 15 15 15 15 15 15 15 15 15 15 14 14 14 14 14 14 14 14 13 13 13
7 7 7 8 9 9 9 9 10 10 11 12 13 13 14 15 15 15 16 16 16 16 16 15 16 16 15 15 15 15 15 15 15 15 15 15 15 14 14 14 14 14 14 14 14 13 13 13 13
7 7 7 8 8 8 9 8 9 10 11 12 13 13 14 15 15 15 16 16 16 16 16 16 16 16 16 16 15 15 15 15 15 15 15 15 15 14 14 14 14 14 14 14 14 14 13 13 13
6 7 8 8 7 7 8 7 8 9 10 11 12 13 14 15 15 15 16 16 16 16 16 16 16 16 16 15 15 15 15 15 15 15 15 15 14 14 14 14 14 14 14 14 14 13 13 13 13
7 8 8 8 7 6 7 7 8 9 9 10 11 13 14 15 15 15 16 16 16 16 16 16 16 16 16 15 15 15 15 15 15 15 15 14 14 14 14 14 14 14 13 13 13 13 13 12 12
7 7 7 6 6 6 7 7 7 8 9 10 11 12 14 14 15 15 15 16 16 16 16 16 15 15 15 15 15 15 15 15 15 14 14 14 14 14 14 14 13 13 13 13 13 13 12 12 12
6 5 5 5 5 6 7 7 8 9 9 10 11 12 14 14 15 15 15 15 15 15 15 15 15 15 15 15 15 15 15 14 14 14 14 14 14 14 14 13 13 13 13 13 13 12 12 12 12
6 5 5 5 5 5 7 7 8 9 10 11 12 12 13 13 14 14 14 14 15 15 15 15 15 15 15 15 14 14 14 14 14 14 14 14 14 13 13 13 13 13 12 12 12 12 12 12 11
6 5 5 5 5 5 6 7 8 9 9 9 10 11 12 12 13 13 13 14 14 14 14 14 14 14 14 14 14 14 14 14 14 14 13 13 13 13 13 13 12 12 12 12 12 11 11 11 11
6 6 4 4 5 5 6 7 7 8 8 9 9 9 10 11 12 12 12 13 13 13 14 14 14 14 14 14 14 14 13 13 13 13 13 13 13 12 12 12 12 12 12 11 11 11 11 10 10
5 6 5 4 5 5 5 6 8 8 8 8 8 9 10 10 11 11 11 12 12 12 13 13 13 13 13 13 13 13 13 13 13 12 12 12 12 11 11 11 11 11 11 11 10 10 10 10 9
6 6 5 5 5 5 5 6 8 7 7 7 8 8 9 10 10 10 11 11 11 12 12 12 12 12 12 12 12 12 12 12 12 12 11 11 11 11 11 11 10 10 10 10 10 9 9 9 9

GEFSSGP_850_meantemp_114.txt.gz
Temperature
11 11 12 12 12 11 12 13 13 15 15 18 19 19 18 18 18 18 19 19 19 18 17 16 16 17 16 17 16 16 16 16 16 16 16 16 16 16 16 15 15 16 16 16 15 15 16 16 16
10 11 11 11 11 11 12 13 13 15 17 18 18 18 18 18 19 19 18 18 18 17 17 16 16 16 16 16 16 16 16 16 16 16 16 16 16 16 16 16 16 16 16 16 16 16 16 16 16
10 10 11 10 11 12 12 13 14 16 17 17 17 18 18 18 18 18 18 18 17 17 17 16 16 16 16 16 16 16 16 16 16 16 16 16 16 16 16 16 16 16 16 16 16 16 16 16 16
9 10 10 10 11 12 13 13 14 15 16 17 17 17 18 18 18 18 18 17 17 17 16 16 16 16 16 16 16 16 16 16 16 16 16 16 16 16 16 16 16 16 16 16 16 16 16 16 16
9 9 9 10 10 11 12 14 15 15 15 16 17 16 17 17 17 17 17 17 17 16 16 16 16 16 16 16 16 16 16 16 16 16 16 16 16 16 16 16 16 16 16 16 16 16 16 16 16
9 9 9 9 10 11 12 14 15 14 15 16 16 16 17 17 17 17 17 17 17 16 16 16 16 16 16 16 16 16 16 16 16 16 16 16 16 16 16 16 16 16 16 16 16 16 16 16 16
8 8 9 9 10 11 13 14 14 13 14 15 16 15 16 17 17 16 16 16 16 16 16 16 16 16 16 16 16 16 16 16 16 16 16 16 16 16 16 16 16 16 16 16 16 16 16 16 16
8 8 8 9 10 11 13 14 14 14 14 15 15 15 15 16 16 16 16 16 16 16 16 16 15 15 15 16 16 16 16 16 16 16 16 16 16 16 16 16 16 16 16 16 16 16 16 16 16
8 7 8 9 10 11 12 13 13 14 14 14 15 15 15 15 16 16 15 15 15 15 15 15 15 15 15 15 15 16 16 16 16 16 16 16 16 16 16 16 16 16 16 16 16 16 16 16 16
7 7 8 9 10 10 11 12 12 13 13 13 14 15 15 15 15 15 15 15 15 15 15 15 15 15 15 15 15 15 15 15 16 16 16 16 16 16 16 16 16 16 16 16 16 16 16 16 16
7 7 8 9 10 10 10 11 12 12 12 12 12 13 14 14 15 15 15 15 15 15 15 15 15 15 15 15 15 15 15 15 15 16 16 16 16 16 16 16 16 16 16 16 16 16 16 15 15
7 7 8 9 9 10 10 10 11 11 12 13 13 13 13 14 14 15 15 15 15 15 15 15 15 15 15 15 15 15 15 15 15 15 16 16 16 16 16 16 16 16 16 16 16 15 15 15 15
7 7 8 9 9 9 10 10 10 10 11 12 13 13 13 14 14 14 15 15 15 15 15 15 15 15 15 15 15 15 15 15 15 15 15 16 16 16 16 16 16 16 16 16 15 15 15 15 15
7 7 8 8 9 9 9 10 10 10 11 12 12 12 13 13 14 14 14 15 15 15 15 15 15 15 15 15 15 15 15 15 15 15 15 15 16 16 16 16 16 16 15 15 15 15 15 15 15
7 7 8 8 8 9 9 10 10 10 11 11 12 12 12 13 13 14 14 14 15 15 15 15 15 15 15 15 15 15 15 15 15 15 15 15 15 15 15 16 16 15 15 15 15 15 15 15 14
7 7 7 8 8 9 9 9 10 11 11 11 11 12 12 13 13 14 14 14 14 15 15 15 15 15 15 15 15 15 15 15 15 15 15 15 15 15 15 15 15 15 15 15 15 14 14 14 14
6 6 7 8 8 8 8 9 10 10 11 11 11 12 12 13 13 14 14 14 14 14 14 14 15 15 15 15 15 15 15 15 15 15 15 15 15 15 15 15 15 15 15 14 14 14 14 14 14
6 6 6 7 8 8 8 8 9 10 10 10 11 11 12 13 13 14 14 14 14 14 14 14 14 15 14 14 14 15 15 15 15 14 15 15 15 15 15 15 14 14 14 14 14 14 14 13 13
6 6 6 7 7 8 8 8 8 9 9 10 10 11 12 13 13 13 14 14 14 14 14 14 15 15 14 14 14 14 14 15 14 14 14 14 14 14 14 14 14 14 14 14 13 13 13 13 13
6 6 6 7 8 8 7 8 8 9 9 10 10 11 12 12 13 13 14 14 14 14 14 14 14 14 14 14 14 15 14 15 15 14 14 14 14 14 14 14 14 14 14 13 13 13 13 13 13
6 6 6 7 7 7 7 8 8 8 9 10 10 11 11 12 13 13 13 14 14 14 14 14 14 14 14 14 14 14 14 14 14 14 14 14 14 14 14 14 14 14 13 13 13 13 13 13 13
6 6 7 7 6 6 7 7 7 8 8 9 9 10 11 12 12 13 14 14 14 14 14 14 14 14 14 14 14 14 14 14 14 14 14 14 14 14 14 14 13 13 13 13 13 13 13 12 12
6 6 6 6 6 5 6 6 7 7 8 8 9 10 10 11 12 13 13 13 14 14 14 14 14 14 14 14 14 14 14 14 14 14 14 14 13 13 13 13 13 13 13 13 13 13 13 12 12
6 6 5 5 5 5 6 6 6 7 8 8 8 9 10 11 12 12 13 13 13 13 14 14 14 13 13 13 13 13 13 13 13 13 13 13 13 13 13 13 13 13 13 13 13 12 12 12 12
5 4 4 4 4 5 6 6 6 7 7 7 8 9 9 10 11 12 12 13 13 13 13 13 13 13 13 13 13 13 13 13 13 13 13 13 13 13 13 13 13 13 13 13 12 12 12 12 12
5 5 4 5 5 5 5 6 6 7 7 7 8 8 9 10 11 11 12 12 12 13 13 13 13 13 13 13 13 13 13 13 13 13 13 13 13 13 13 13 13 13 13 12 12 12 12 12 11
5 4 4 3 4 4 5 5 6 7 7 6 7 7 8 9 10 10 11 11 12 12 12 12 13 13 13 13 12 12 12 12 12 12 12 13 12 12 12 12 12 12 12 12 12 12 12 11 11
5 4 4 4 4 5 5 5 5 6 6 6 5 6 7 8 9 10 10 11 11 11 12 12 12 12 12 12 12 12 12 12 12 12 12 12 12 12 12 12 12 12 12 12 11 11 11 11 11
5 5 4 3 4 4 5 6 6 6 6 5 5 6 7 7 8 9 9 10 10 11 11 11 11 11 11 12 12 12 12 12 12 12 12 12 12 12 12 11 11 11 11 11 11 11 10 10 10
5 5 4 4 4 3 4 5 6 5 5 5 5 6 7 7 8 8 9 9 9 10 10 10 10 11 11 11 11 11 11 11 11 11 11 11 11 11 11 11 11 11 10 10 10 10 10 10 9